• In Deutschland
  • Länderverzeichnis
  • Für 7 Tage
  • Wassertemperatur
  • Satellitenkarten
  • Wetterkarte
  • Widgets
  • user-avatar
    Anmelden

    Stündliche Wetter Döbeln

    Heute, 12 Dezember, Dienstag

    Zeit Temperatur Niederschläge Wind Luftdruck Luftfeuchtigkeit
    00:00 +5°C° 0,4 mm 4 m/S 720 mmHg 87%
    01:00 +4°C° 0 mm 4 m/S 721 mmHg 88%
    02:00 +4°C° 0,1 mm 4 m/S 721 mmHg 85%
    03:00 +3°C° 0,1 mm 5 m/S 722 mmHg 82%
    04:00 +4°C° 0,1 mm 6 m/S 722 mmHg 80%
    05:00 +3°C° 0 mm 7 m/S 723 mmHg 78%
    06:00 +3°C° 0 mm 7 m/S 724 mmHg 77%
    07:00 +2°C° 0 mm 8 m/S 725 mmHg 76%
    08:00 +1°C° 0 mm 8 m/S 726 mmHg 74%
    09:00 +1°C° 0 mm 9 m/S 727 mmHg 73%
    10:00 +1°C° 0 mm 9 m/S 728 mmHg 72%
    11:00 +1°C° 0 mm 9 m/S 729 mmHg 70%
    12:00 +1°C° 0 mm 9 m/S 731 mmHg 68%
    13:00 +1°C° 0 mm 9 m/S 732 mmHg 66%
    14:00 0°C° 0 mm 8 m/S 733 mmHg 67%
    15:00 0°C° 0 mm 8 m/S 734 mmHg 69%
    16:00 -1°C° 0 mm 7 m/S 734 mmHg 70%
    17:00 -1°C° 0 mm 7 m/S 735 mmHg 72%
    18:00 -1°C° 0 mm 7 m/S 736 mmHg 74%
    19:00 -2°C° 0 mm 6 m/S 737 mmHg 76%
    20:00 -2°C° 0 mm 6 m/S 738 mmHg 77%
    21:00 -2°C° 0 mm 6 m/S 738 mmHg 79%
    22:00 -2°C° 0 mm 6 m/S 739 mmHg 81%
    23:00 -1°C° 0 mm 5 m/S 740 mmHg 82%

    Morgen, 13 Dezember, Mittwoch

    Zeit Temperatur Niederschläge Wind Luftdruck Luftfeuchtigkeit
    00:00 -1°C° 0 mm 5 m/S 740 mmHg 83%
    01:00 -2°C° 0 mm 5 m/S 740 mmHg 84%
    02:00 -2°C° 0 mm 4 m/S 740 mmHg 84%
    03:00 -2°C° 0 mm 4 m/S 741 mmHg 84%
    04:00 -2°C° 0 mm 4 m/S 741 mmHg 84%
    05:00 -2°C° 0 mm 4 m/S 740 mmHg 83%
    06:00 -2°C° 0 mm 4 m/S 740 mmHg 82%
    07:00 -2°C° 0 mm 4 m/S 740 mmHg 82%
    08:00 -2°C° 0 mm 5 m/S 740 mmHg 79%
    09:00 -1°C° 0 mm 5 m/S 740 mmHg 76%
    10:00 -1°C° 0 mm 6 m/S 740 mmHg 73%
    11:00 -1°C° 0 mm 6 m/S 739 mmHg 70%
    12:00 0°C° 0 mm 7 m/S 738 mmHg 68%
    13:00 +2°C° 0 mm 7 m/S 738 mmHg 65%
    14:00 0°C° 0 mm 7 m/S 737 mmHg 67%
    15:00 +1°C° 0 mm 6 m/S 736 mmHg 69%
    16:00 -1°C° 0 mm 6 m/S 735 mmHg 70%
    17:00 -1°C° 0,2 mm 7 m/S 734 mmHg 71%
    18:00 -1°C° 0,2 mm 7 m/S 733 mmHg 73%
    19:00 -1°C° 0,2 mm 7 m/S 732 mmHg 74%
    20:00 0°C° 0,4 mm 7 m/S 731 mmHg 75%
    21:00 0°C° 0,4 mm 7 m/S 731 mmHg 77%
    22:00 +2°C° 0,4 mm 7 m/S 730 mmHg 78%
    23:00 +2°C° 0,1 mm 7 m/S 729 mmHg 78%

    übermorgen, 14 Dezember, Donnerstag

    Zeit Temperatur Niederschläge Wind Luftdruck Luftfeuchtigkeit
    00:00 +2°C° 0,1 mm 7 m/S 727 mmHg 79%
    01:00 +3°C° 0,1 mm 7 m/S 726 mmHg 79%
    02:00 +3°C° 0,4 mm 7 m/S 726 mmHg 80%
    03:00 +3°C° 0,4 mm 7 m/S 726 mmHg 81%
    04:00 +4°C° 0,4 mm 7 m/S 725 mmHg 83%
    05:00 +3°C° 0,4 mm 6 m/S 725 mmHg 83%
    06:00 +2°C° 0,4 mm 6 m/S 725 mmHg 83%
    07:00 +2°C° 0,4 mm 5 m/S 725 mmHg 83%
    08:00 +2°C° 0,1 mm 7 m/S 725 mmHg 76%
    09:00 +1°C° 0,1 mm 8 m/S 725 mmHg 69%
    10:00 +1°C° 0,1 mm 10 m/S 726 mmHg 62%
    11:00 +1°C° 0 mm 9 m/S 726 mmHg 60%
    12:00 +1°C° 0 mm 9 m/S 727 mmHg 58%
    13:00 +1°C° 0 mm 9 m/S 727 mmHg 56%
    14:00 0°C° 0 mm 8 m/S 727 mmHg 59%
    15:00 +1°C° 0 mm 6 m/S 727 mmHg 62%
    16:00 0°C° 0 mm 5 m/S 727 mmHg 66%
    17:00 0°C° 0 mm 5 m/S 727 mmHg 69%
    18:00 0°C° 0 mm 4 m/S 726 mmHg 73%
    19:00 0°C° 0 mm 4 m/S 725 mmHg 76%
    20:00 0°C° 0,3 mm 4 m/S 724 mmHg 79%
    21:00 0°C° 0,3 mm 4 m/S 723 mmHg 81%
    22:00 0°C° 0,3 mm 4 m/S 722 mmHg 83%
    23:00 +1°C° 0 mm 5 m/S 722 mmHg 82%

    15 Dezember, Freitag

    Zeit Temperatur Niederschläge Wind Luftdruck Luftfeuchtigkeit
    00:00 +1°C° 0 mm 6 m/S 722 mmHg 82%
    01:00 0°C° 0 mm 7 m/S 722 mmHg 81%
    02:00 0°C° 0,5 mm 8 m/S 722 mmHg 81%
    03:00 -1°C° 0,5 mm 8 m/S 723 mmHg 80%
    04:00 -1°C° 0,5 mm 9 m/S 723 mmHg 80%
    05:00 -2°C° 0 mm 7 m/S 724 mmHg 81%
    06:00 -2°C° 0 mm 6 m/S 725 mmHg 82%
    07:00 -2°C° 0 mm 5 m/S 725 mmHg 83%
    08:00 -1°C° 0 mm 5 m/S 726 mmHg 82%
    09:00 -1°C° 0 mm 5 m/S 726 mmHg 82%
    10:00 0°C° 0 mm 5 m/S 726 mmHg 81%
    11:00 +1°C° 0,1 mm 5 m/S 726 mmHg 80%
    12:00 +1°C° 0,1 mm 5 m/S 726 mmHg 78%
    13:00 +2°C° 0,1 mm 5 m/S 726 mmHg 76%
    14:00 +1°C° 0,1 mm 5 m/S 726 mmHg 77%
    15:00 +1°C° 0,1 mm 5 m/S 726 mmHg 79%
    16:00 +1°C° 0,1 mm 4 m/S 726 mmHg 80%
    17:00 0°C° 0 mm 4 m/S 726 mmHg 81%
    18:00 0°C° 0 mm 4 m/S 726 mmHg 83%
    19:00 0°C° 0 mm 4 m/S 726 mmHg 84%
    20:00 0°C° 0,1 mm 4 m/S 726 mmHg 85%
    21:00 0°C° 0,1 mm 4 m/S 727 mmHg 86%
    22:00 0°C° 0,1 mm 4 m/S 727 mmHg 87%
    23:00 0°C° 0,1 mm 4 m/S 728 mmHg 88%

    16 Dezember, Samstag

    Zeit Temperatur Niederschläge Wind Luftdruck Luftfeuchtigkeit
    00:00 -1°C° 0,1 mm 5 m/S 728 mmHg 88%
    01:00 -1°C° 0,1 mm 5 m/S 728 mmHg 89%
    02:00 -2°C° 0 mm 5 m/S 729 mmHg 89%
    03:00 -2°C° 0 mm 5 m/S 729 mmHg 90%
    04:00 -2°C° 0 mm 5 m/S 729 mmHg 90%
    05:00 -2°C° 0 mm 5 m/S 730 mmHg 90%
    06:00 -2°C° 0 mm 5 m/S 730 mmHg 89%
    07:00 -3°C° 0 mm 6 m/S 731 mmHg 89%
    08:00 -2°C° 0,2 mm 6 m/S 732 mmHg 88%
    09:00 -2°C° 0,2 mm 6 m/S 732 mmHg 87%
    10:00 -1°C° 0,2 mm 6 m/S 733 mmHg 86%
    11:00 -1°C° 0 mm 6 m/S 733 mmHg 84%
    12:00 -1°C° 0 mm 6 m/S 734 mmHg 82%
    13:00 +1°C° 0 mm 6 m/S 734 mmHg 80%
    14:00 -1°C° 0,2 mm 6 m/S 734 mmHg 82%
    15:00 0°C° 0,2 mm 5 m/S 734 mmHg 84%
    16:00 0°C° 0,2 mm 4 m/S 735 mmHg 86%
    17:00 -1°C° 0,3 mm 4 m/S 735 mmHg 87%
    18:00 -1°C° 0,3 mm 4 m/S 735 mmHg 88%
    19:00 -1°C° 0,3 mm 4 m/S 736 mmHg 90%
    20:00 -1°C° 0 mm 5 m/S 736 mmHg 89%
    21:00 -2°C° 0 mm 5 m/S 736 mmHg 89%
    22:00 -2°C° 0 mm 5 m/S 736 mmHg 89%
    23:00 -2°C° 0 mm 5 m/S 737 mmHg 89%

    17 Dezember, Sonntag

    Zeit Temperatur Niederschläge Wind Luftdruck Luftfeuchtigkeit
    00:00 -2°C° 0 mm 5 m/S 737 mmHg 89%
    01:00 -2°C° 0 mm 5 m/S 737 mmHg 89%
    02:00 -4°C° 0 mm 6 m/S 738 mmHg 88%
    03:00 -4°C° 0 mm 6 m/S 738 mmHg 88%
    04:00 -4°C° 0 mm 6 m/S 738 mmHg 87%
    05:00 -3°C° 0,1 mm 6 m/S 739 mmHg 88%
    06:00 -3°C° 0,1 mm 6 m/S 739 mmHg 88%
    07:00 -3°C° 0,1 mm 6 m/S 739 mmHg 88%
    08:00 -3°C° 0,2 mm 6 m/S 740 mmHg 88%
    09:00 -3°C° 0,2 mm 6 m/S 741 mmHg 87%
    10:00 -3°C° 0,2 mm 6 m/S 741 mmHg 87%
    11:00 -2°C° 0,1 mm 6 m/S 741 mmHg 86%
    12:00 -2°C° 0,1 mm 6 m/S 742 mmHg 86%
    13:00 -2°C° 0,1 mm 6 m/S 742 mmHg 85%
    14:00 -1°C° 0,2 mm 5 m/S 742 mmHg 86%
    15:00 -1°C° 0,2 mm 5 m/S 743 mmHg 87%
    16:00 -1°C° 0,2 mm 5 m/S 743 mmHg 88%
    17:00 -1°C° 0,1 mm 5 m/S 744 mmHg 88%
    18:00 -1°C° 0,1 mm 5 m/S 744 mmHg 89%
    19:00 -2°C° 0,1 mm 5 m/S 745 mmHg 89%
    20:00 -2°C° 0,1 mm 5 m/S 745 mmHg 90%
    21:00 -2°C° 0,1 mm 4 m/S 745 mmHg 91%
    22:00 -2°C° 0,1 mm 4 m/S 746 mmHg 91%
    23:00 -3°C° 0 mm 4 m/S 746 mmHg 91%
    Mehr zeigen